owner,sensor,date,latitude,longitude,air_temperature,qcFlag 
COMPS,ioos:station:USF.COMPS:C10:1,2010-11-01T00:00:00Z,27.1690,-82.9260,24.0,1111122 
COMPS,ioos:station:USF.COMPS:C10:1,2010-11-01T00:20:00Z,27.1690,-82.9260,23.81,1111122 
COMPS,ioos:station:USF.COMPS:C10:1,2010-11-01T00:40:00Z,27.1690,-82.9260,23.86,1111122 
COMPS,ioos:station:USF.COMPS:C10:1,2010-11-01T01:00:00Z,27.1690,-82.9260,23.9,1111122 
COMPS,ioos:station:USF.COMPS:C10:1,2010-11-01T01:20:00Z,27.1690,-82.9260,23.9,1111122 
COMPS,ioos:station:USF.COMPS:C10:1,2010-11-01T01:40:00Z,27.1690,-82.9260,23.97,1111122 
COMPS,ioos:station:USF.COMPS:C10:1,2010-11-01T02:00:00Z,27.1690,-82.9260,24.0,1111122 
COMPS,ioos:station:USF.COMPS:C10:1,2010-11-01T02:20:00Z,27.1690,-82.9260,23.94,1111122 
COMPS,ioos:station:USF.COMPS:C10:1,2010-11-01T02:40:00Z,27.1690,-82.9260,23.9,1111122 
COMPS,ioos:station:USF.COMPS:C10:1,2010-11-01T03:00:00Z,27.1690,-82.9260,23.9,1111122 
COMPS,ioos:station:USF.COMPS:C10:1,2010-11-01T03:20:00Z,27.1690,-82.9260,23.94,1111122 
COMPS,ioos:station:USF.COMPS:C10:1,2010-11-01T03:40:00Z,27.1690,-82.9260,23.88,1111122 
COMPS,ioos:station:USF.COMPS:C10:1,2010-11-01T04:00:00Z,27.1690,-82.9260,23.9,1111122 
COMPS,ioos:station:USF.COMPS:C10:1,2010-11-01T04:20:00Z,27.1690,-82.9260,23.86,1111122 
COMPS,ioos:station:USF.COMPS:C10:1,2010-11-01T04:40:00Z,27.1690,-82.9260,23.9,1111122 
COMPS,ioos:station:USF.COMPS:C10:1,2010-11-01T05:00:00Z,27.1690,-82.9260,23.9,1111122 
COMPS,ioos:station:USF.COMPS:C10:1,2010-11-01T05:20:00Z,27.1690,-82.9260,23.81,1111122 
COMPS,ioos:station:USF.COMPS:C10:1,2010-11-01T05:40:00Z,27.1690,-82.9260,23.82,1111122 
COMPS,ioos:station:USF.COMPS:C10:1,2010-11-01T06:00:00Z,27.1690,-82.9260,23.8,1111122 
COMPS,ioos:station:USF.COMPS:C10:1,2010-11-01T06:20:00Z,27.1690,-82.9260,22.85,1111122 
COMPS,ioos:station:USF.COMPS:C10:1,2010-11-01T06:40:00Z,27.1690,-82.9260,22.7,1111122 
COMPS,ioos:station:USF.COMPS:C10:1,2010-11-01T07:00:00Z,27.1690,-82.9260,22.7,1111122 
COMPS,ioos:station:USF.COMPS:C10:1,2010-11-01T07:20:00Z,27.1690,-82.9260,22.75,1111122 
COMPS,ioos:station:USF.COMPS:C10:1,2010-11-01T07:40:00Z,27.1690,-82.9260,22.97,1111122 
COMPS,ioos:station:USF.COMPS:C10:1,2010-11-01T08:00:00Z,27.1690,-82.9260,23.0,1111122 
COMPS,ioos:station:USF.COMPS:C10:1,2010-11-01T08:20:00Z,27.1690,-82.9260,23.15,1111122 
COMPS,ioos:station:USF.COMPS:C10:1,2010-11-01T08:40:00Z,27.1690,-82.9260,23.11,1111122 
COMPS,ioos:station:USF.COMPS:C10:1,2010-11-01T09:00:00Z,27.1690,-82.9260,23.1,1111122 
COMPS,ioos:station:USF.COMPS:C10:1,2010-11-01T09:20:00Z,27.1690,-82.9260,23.13,1111122 
COMPS,ioos:station:USF.COMPS:C10:1,2010-11-01T09:40:00Z,27.1690,-82.9260,23.28,1111122 
COMPS,ioos:station:USF.COMPS:C10:1,2010-11-01T10:00:00Z,27.1690,-82.9260,23.3,1111122 
COMPS,ioos:station:USF.COMPS:C10:1,2010-11-01T10:20:00Z,27.1690,-82.9260,23.39,1111122 
COMPS,ioos:station:USF.COMPS:C10:1,2010-11-01T10:40:00Z,27.1690,-82.9260,23.4,1111122 
COMPS,ioos:station:USF.COMPS:C10:1,2010-11-01T11:00:00Z,27.1690,-82.9260,23.4,1111122 
COMPS,ioos:station:USF.COMPS:C10:1,2010-11-01T11:20:00Z,27.1690,-82.9260,23.46,1111122 
COMPS,ioos:station:USF.COMPS:C10:1,2010-11-01T11:40:00Z,27.1690,-82.9260,23.4,1111122 
COMPS,ioos:station:USF.COMPS:C10:1,2010-11-01T12:00:00Z,27.1690,-82.9260,23.4,1111122 
COMPS,ioos:station:USF.COMPS:C10:1,2010-11-01T12:20:00Z,27.1690,-82.9260,23.2,1111122 
COMPS,ioos:station:USF.COMPS:C10:1,2010-11-01T12:40:00Z,27.1690,-82.9260,23.17,1111122 
COMPS,ioos:station:USF.COMPS:C10:1,2010-11-01T13:00:00Z,27.1690,-82.9260,23.2,1111122 
COMPS,ioos:station:USF.COMPS:C10:1,2010-11-01T13:20:00Z,27.1690,-82.9260,23.01,1111122 
COMPS,ioos:station:USF.COMPS:C10:1,2010-11-01T13:40:00Z,27.1690,-82.9260,22.88,1111122 
COMPS,ioos:station:USF.COMPS:C10:1,2010-11-01T14:00:00Z,27.1690,-82.9260,22.9,1111122 
COMPS,ioos:station:USF.COMPS:C10:1,2010-11-01T14:20:00Z,27.1690,-82.9260,22.84,1111122 
COMPS,ioos:station:USF.COMPS:C10:1,2010-11-01T14:40:00Z,27.1690,-82.9260,22.96,1111122 
COMPS,ioos:station:USF.COMPS:C10:1,2010-11-01T15:00:00Z,27.1690,-82.9260,23.0,1111122 
COMPS,ioos:station:USF.COMPS:C10:1,2010-11-01T15:20:00Z,27.1690,-82.9260,23.23,1111122 
COMPS,ioos:station:USF.COMPS:C10:1,2010-11-01T15:40:00Z,27.1690,-82.9260,23.26,1111122 
COMPS,ioos:station:USF.COMPS:C10:1,2010-11-01T16:00:00Z,27.1690,-82.9260,23.3,1111122 
COMPS,ioos:station:USF.COMPS:C10:1,2010-11-01T16:20:00Z,27.1690,-82.9260,23.39,1111122 
COMPS,ioos:station:USF.COMPS:C10:1,2010-11-01T16:40:00Z,27.1690,-82.9260,23.64,1111122 
COMPS,ioos:station:USF.COMPS:C10:1,2010-11-01T17:00:00Z,27.1690,-82.9260,23.6,1111122 
COMPS,ioos:station:USF.COMPS:C10:1,2010-11-01T17:20:00Z,27.1690,-82.9260,23.77,1111122 
COMPS,ioos:station:USF.COMPS:C10:1,2010-11-01T17:40:00Z,27.1690,-82.9260,23.72,1111122 
COMPS,ioos:station:USF.COMPS:C10:1,2010-11-01T18:00:00Z,27.1690,-82.9260,23.7,1111122 
COMPS,ioos:station:USF.COMPS:C10:1,2010-11-01T18:20:00Z,27.1690,-82.9260,23.79,1111122 
COMPS,ioos:station:USF.COMPS:C10:1,2010-11-01T18:40:00Z,27.1690,-82.9260,23.93,1111122 
COMPS,ioos:station:USF.COMPS:C10:1,2010-11-01T19:00:00Z,27.1690,-82.9260,24.02,1111122 
COMPS,ioos:station:USF.COMPS:C10:1,2010-11-01T19:20:00Z,27.1690,-82.9260,24.12,1111122 
COMPS,ioos:station:USF.COMPS:C10:1,2010-11-01T19:40:00Z,27.1690,-82.9260,24.26,1111122 
COMPS,ioos:station:USF.COMPS:C10:1,2010-11-01T20:00:00Z,27.1690,-82.9260,24.3,1111122 
COMPS,ioos:station:USF.COMPS:C10:1,2010-11-01T20:20:00Z,27.1690,-82.9260,24.47,1111122 
COMPS,ioos:station:USF.COMPS:C10:1,2010-11-01T20:40:00Z,27.1690,-82.9260,24.59,1111122 
COMPS,ioos:station:USF.COMPS:C10:1,2010-11-01T21:00:00Z,27.1690,-82.9260,24.6,1111122 
COMPS,ioos:station:USF.COMPS:C10:1,2010-11-01T21:20:00Z,27.1690,-82.9260,24.82,1111122 
COMPS,ioos:station:USF.COMPS:C10:1,2010-11-01T21:40:00Z,27.1690,-82.9260,24.77,1111122 
COMPS,ioos:station:USF.COMPS:C10:1,2010-11-01T22:00:00Z,27.1690,-82.9260,24.8,1111122 
COMPS,ioos:station:USF.COMPS:C10:1,2010-11-01T22:20:00Z,27.1690,-82.9260,24.59,1111122 
COMPS,ioos:station:USF.COMPS:C10:1,2010-11-01T22:40:00Z,27.1690,-82.9260,24.56,1111122 
COMPS,ioos:station:USF.COMPS:C10:1,2010-11-01T23:00:00Z,27.1690,-82.9260,24.6,1111122 
COMPS,ioos:station:USF.COMPS:C10:1,2010-11-01T23:20:00Z,27.1690,-82.9260,24.34,1111122 
COMPS,ioos:station:USF.COMPS:C10:1,2010-11-01T23:40:00Z,27.1690,-82.9260,24.28,1111122 
COMPS,ioos:station:USF.COMPS:C10:1,2010-11-02T00:00:00Z,27.1690,-82.9260,24.3,1111122 
COMPS,ioos:station:USF.COMPS:C10:1,2010-11-02T00:20:00Z,27.1690,-82.9260,24.12,1111122 
COMPS,ioos:station:USF.COMPS:C10:1,2010-11-02T00:40:00Z,27.1690,-82.9260,23.9,1111122 
COMPS,ioos:station:USF.COMPS:C10:1,2010-11-02T01:00:00Z,27.1690,-82.9260,23.9,1111122 
COMPS,ioos:station:USF.COMPS:C10:1,2010-11-02T01:20:00Z,27.1690,-82.9260,23.96,1111122 
COMPS,ioos:station:USF.COMPS:C10:1,2010-11-02T01:40:00Z,27.1690,-82.9260,23.9,1111122 
COMPS,ioos:station:USF.COMPS:C10:1,2010-11-02T02:00:00Z,27.1690,-82.9260,23.9,1111122 
COMPS,ioos:station:USF.COMPS:C10:1,2010-11-02T02:20:00Z,27.1690,-82.9260,23.81,1111122 
COMPS,ioos:station:USF.COMPS:C10:1,2010-11-02T02:40:00Z,27.1690,-82.9260,23.83,1111122 
COMPS,ioos:station:USF.COMPS:C10:1,2010-11-02T03:00:00Z,27.1690,-82.9260,23.8,1111122 
COMPS,ioos:station:USF.COMPS:C10:1,2010-11-02T03:20:00Z,27.1690,-82.9260,23.85,1111122 
COMPS,ioos:station:USF.COMPS:C10:1,2010-11-02T03:40:00Z,27.1690,-82.9260,23.77,1111122 
COMPS,ioos:station:USF.COMPS:C10:1,2010-11-02T04:00:00Z,27.1690,-82.9260,23.8,1111122 
COMPS,ioos:station:USF.COMPS:C10:1,2010-11-02T04:20:00Z,27.1690,-82.9260,23.48,1111122 
COMPS,ioos:station:USF.COMPS:C10:1,2010-11-02T04:40:00Z,27.1690,-82.9260,23.61,1111122 
COMPS,ioos:station:USF.COMPS:C10:1,2010-11-02T05:00:00Z,27.1690,-82.9260,23.6,1111122 
COMPS,ioos:station:USF.COMPS:C10:1,2010-11-02T05:20:00Z,27.1690,-82.9260,23.48,1111122 
COMPS,ioos:station:USF.COMPS:C10:1,2010-11-02T05:40:00Z,27.1690,-82.9260,23.39,1111122 
COMPS,ioos:station:USF.COMPS:C10:1,2010-11-02T06:00:00Z,27.1690,-82.9260,23.4,1111122 
COMPS,ioos:station:USF.COMPS:C10:1,2010-11-02T06:20:00Z,27.1690,-82.9260,23.39,1111122 
COMPS,ioos:station:USF.COMPS:C10:1,2010-11-02T06:40:00Z,27.1690,-82.9260,22.93,1111122 
COMPS,ioos:station:USF.COMPS:C10:1,2010-11-02T07:00:00Z,27.1690,-82.9260,22.9,1111122 
COMPS,ioos:station:USF.COMPS:C10:1,2010-11-02T07:20:00Z,27.1690,-82.9260,22.8,1111122 
COMPS,ioos:station:USF.COMPS:C10:1,2010-11-02T07:40:00Z,27.1690,-82.9260,22.68,1111122 
COMPS,ioos:station:USF.COMPS:C10:1,2010-11-02T08:00:00Z,27.1690,-82.9260,22.7,1111122 
COMPS,ioos:station:USF.COMPS:C10:1,2010-11-02T08:20:00Z,27.1690,-82.9260,22.76,1111122 
COMPS,ioos:station:USF.COMPS:C10:1,2010-11-02T08:40:00Z,27.1690,-82.9260,22.72,1111122 
COMPS,ioos:station:USF.COMPS:C10:1,2010-11-02T09:00:00Z,27.1690,-82.9260,22.7,1111122 
COMPS,ioos:station:USF.COMPS:C10:1,2010-11-02T09:20:00Z,27.1690,-82.9260,22.72,1111122 
COMPS,ioos:station:USF.COMPS:C10:1,2010-11-02T09:40:00Z,27.1690,-82.9260,22.66,1111122 
COMPS,ioos:station:USF.COMPS:C10:1,2010-11-02T10:00:00Z,27.1690,-82.9260,22.7,1111122 
COMPS,ioos:station:USF.COMPS:C10:1,2010-11-02T10:20:00Z,27.1690,-82.9260,22.58,1111122 
COMPS,ioos:station:USF.COMPS:C10:1,2010-11-02T10:40:00Z,27.1690,-82.9260,22.66,1111122 
COMPS,ioos:station:USF.COMPS:C10:1,2010-11-02T11:00:00Z,27.1690,-82.9260,22.7,1111122 
COMPS,ioos:station:USF.COMPS:C10:1,2010-11-02T11:20:00Z,27.1690,-82.9260,22.5,1111122 
COMPS,ioos:station:USF.COMPS:C10:1,2010-11-02T11:40:00Z,27.1690,-82.9260,22.63,1111122 
COMPS,ioos:station:USF.COMPS:C10:1,2010-11-02T12:00:00Z,27.1690,-82.9260,22.6,1111122 
COMPS,ioos:station:USF.COMPS:C10:1,2010-11-02T12:20:00Z,27.1690,-82.9260,22.47,1111122 
COMPS,ioos:station:USF.COMPS:C10:1,2010-11-02T12:40:00Z,27.1690,-82.9260,22.54,1111122 
COMPS,ioos:station:USF.COMPS:C10:1,2010-11-02T13:00:00Z,27.1690,-82.9260,22.5,1111122 
COMPS,ioos:station:USF.COMPS:C10:1,2010-11-02T13:20:00Z,27.1690,-82.9260,22.59,1111122 
COMPS,ioos:station:USF.COMPS:C10:1,2010-11-02T13:40:00Z,27.1690,-82.9260,22.53,1111122 
COMPS,ioos:station:USF.COMPS:C10:1,2010-11-02T14:00:00Z,27.1690,-82.9260,22.5,1111122 
COMPS,ioos:station:USF.COMPS:C10:1,2010-11-02T14:20:00Z,27.1690,-82.9260,22.48,1111122 
COMPS,ioos:station:USF.COMPS:C10:1,2010-11-02T14:40:00Z,27.1690,-82.9260,22.6,1111122 
COMPS,ioos:station:USF.COMPS:C10:1,2010-11-02T15:00:00Z,27.1690,-82.9260,22.6,1111122 
COMPS,ioos:station:USF.COMPS:C10:1,2010-11-02T15:20:00Z,27.1690,-82.9260,23.03,1111122 
COMPS,ioos:station:USF.COMPS:C10:1,2010-11-02T15:40:00Z,27.1690,-82.9260,23.15,1111122 
COMPS,ioos:station:USF.COMPS:C10:1,2010-11-02T16:00:00Z,27.1690,-82.9260,23.2,1111122 
COMPS,ioos:station:USF.COMPS:C10:1,2010-11-02T16:20:00Z,27.1690,-82.9260,23.37,1111122 
COMPS,ioos:station:USF.COMPS:C10:1,2010-11-02T16:40:00Z,27.1690,-82.9260,23.48,1111122 
COMPS,ioos:station:USF.COMPS:C10:1,2010-11-02T17:00:00Z,27.1690,-82.9260,23.5,1111122 
COMPS,ioos:station:USF.COMPS:C10:1,2010-11-02T17:20:00Z,27.1690,-82.9260,23.7,1111122 
COMPS,ioos:station:USF.COMPS:C10:1,2010-11-02T17:40:00Z,27.1690,-82.9260,23.86,1111122 
COMPS,ioos:station:USF.COMPS:C10:1,2010-11-02T18:00:00Z,27.1690,-82.9260,23.9,1111122 
COMPS,ioos:station:USF.COMPS:C10:1,2010-11-02T18:20:00Z,27.1690,-82.9260,23.96,1111122 
COMPS,ioos:station:USF.COMPS:C10:1,2010-11-02T18:40:00Z,27.1690,-82.9260,24.05,1111122 
COMPS,ioos:station:USF.COMPS:C10:1,2010-11-02T19:00:00Z,27.1690,-82.9260,24.1,1111122 
COMPS,ioos:station:USF.COMPS:C10:1,2010-11-02T19:20:00Z,27.1690,-82.9260,24.44,1111122 
COMPS,ioos:station:USF.COMPS:C10:1,2010-11-02T19:40:00Z,27.1690,-82.9260,24.59,1111122 
COMPS,ioos:station:USF.COMPS:C10:1,2010-11-02T20:00:00Z,27.1690,-82.9260,24.6,1111122 
COMPS,ioos:station:USF.COMPS:C10:1,2010-11-02T20:20:00Z,27.1690,-82.9260,24.61,1111122 
COMPS,ioos:station:USF.COMPS:C10:1,2010-11-02T20:40:00Z,27.1690,-82.9260,24.91,1111122 
COMPS,ioos:station:USF.COMPS:C10:1,2010-11-02T21:00:00Z,27.1690,-82.9260,24.9,1111122 
COMPS,ioos:station:USF.COMPS:C10:1,2010-11-02T21:20:00Z,27.1690,-82.9260,24.46,1111122 
COMPS,ioos:station:USF.COMPS:C10:1,2010-11-02T21:40:00Z,27.1690,-82.9260,24.3,1111122 
COMPS,ioos:station:USF.COMPS:C10:1,2010-11-02T22:00:00Z,27.1690,-82.9260,24.3,1111122 
COMPS,ioos:station:USF.COMPS:C10:1,2010-11-02T22:20:00Z,27.1690,-82.9260,24.44,1111122 
COMPS,ioos:station:USF.COMPS:C10:1,2010-11-02T22:40:00Z,27.1690,-82.9260,24.63,1111122 
COMPS,ioos:station:USF.COMPS:C10:1,2010-11-02T23:00:00Z,27.1690,-82.9260,24.6,1111122 
COMPS,ioos:station:USF.COMPS:C10:1,2010-11-02T23:20:00Z,27.1690,-82.9260,24.5,1111122 
COMPS,ioos:station:USF.COMPS:C10:1,2010-11-02T23:40:00Z,27.1690,-82.9260,24.62,1111122 
COMPS,ioos:station:USF.COMPS:C10:1,2010-11-03T00:00:00Z,27.1690,-82.9260,24.5,1111122 
COMPS,ioos:station:USF.COMPS:C10:1,2010-11-03T00:20:00Z,27.1690,-82.9260,24.58,1111122 
COMPS,ioos:station:USF.COMPS:C10:1,2010-11-03T00:40:00Z,27.1690,-82.9260,24.5,1111122 
COMPS,ioos:station:USF.COMPS:C10:1,2010-11-03T01:00:00Z,27.1690,-82.9260,24.5,1111122 
COMPS,ioos:station:USF.COMPS:C10:1,2010-11-03T01:20:00Z,27.1690,-82.9260,23.9,1111122 
COMPS,ioos:station:USF.COMPS:C10:1,2010-11-03T01:40:00Z,27.1690,-82.9260,23.57,1111122 
COMPS,ioos:station:USF.COMPS:C10:1,2010-11-03T02:00:00Z,27.1690,-82.9260,23.6,1111122 
COMPS,ioos:station:USF.COMPS:C10:1,2010-11-03T02:20:00Z,27.1690,-82.9260,23.42,1111122 
COMPS,ioos:station:USF.COMPS:C10:1,2010-11-03T02:40:00Z,27.1690,-82.9260,23.32,1111122 
COMPS,ioos:station:USF.COMPS:C10:1,2010-11-03T03:00:00Z,27.1690,-82.9260,23.3,1111122 
COMPS,ioos:station:USF.COMPS:C10:1,2010-11-03T03:20:00Z,27.1690,-82.9260,23.2,1111122 
COMPS,ioos:station:USF.COMPS:C10:1,2010-11-03T03:40:00Z,27.1690,-82.9260,23.03,1111122 
COMPS,ioos:station:USF.COMPS:C10:1,2010-11-03T04:00:00Z,27.1690,-82.9260,23.0,1111122 
COMPS,ioos:station:USF.COMPS:C10:1,2010-11-03T04:20:00Z,27.1690,-82.9260,23.13,1111122 
COMPS,ioos:station:USF.COMPS:C10:1,2010-11-03T04:40:00Z,27.1690,-82.9260,23.2,1111122 
COMPS,ioos:station:USF.COMPS:C10:1,2010-11-03T05:00:00Z,27.1690,-82.9260,23.2,1111122 
COMPS,ioos:station:USF.COMPS:C10:1,2010-11-03T05:20:00Z,27.1690,-82.9260,22.97,1111122 
COMPS,ioos:station:USF.COMPS:C10:1,2010-11-03T05:40:00Z,27.1690,-82.9260,22.9,1111122 
COMPS,ioos:station:USF.COMPS:C10:1,2010-11-03T06:00:00Z,27.1690,-82.9260,22.9,1111122 
COMPS,ioos:station:USF.COMPS:C10:1,2010-11-03T06:20:00Z,27.1690,-82.9260,22.78,1111122 
COMPS,ioos:station:USF.COMPS:C10:1,2010-11-03T06:40:00Z,27.1690,-82.9260,22.76,1111122 
COMPS,ioos:station:USF.COMPS:C10:1,2010-11-03T07:00:00Z,27.1690,-82.9260,22.8,1111122 
COMPS,ioos:station:USF.COMPS:C10:1,2010-11-03T07:20:00Z,27.1690,-82.9260,22.68,1111122 
COMPS,ioos:station:USF.COMPS:C10:1,2010-11-03T07:40:00Z,27.1690,-82.9260,22.73,1111122 
COMPS,ioos:station:USF.COMPS:C10:1,2010-11-03T08:00:00Z,27.1690,-82.9260,22.7,1111122 
COMPS,ioos:station:USF.COMPS:C10:1,2010-11-03T08:20:00Z,27.1690,-82.9260,22.65,1111122 
COMPS,ioos:station:USF.COMPS:C10:1,2010-11-03T08:40:00Z,27.1690,-82.9260,22.57,1111122 
COMPS,ioos:station:USF.COMPS:C10:1,2010-11-03T09:00:00Z,27.1690,-82.9260,22.6,1111122 
COMPS,ioos:station:USF.COMPS:C10:1,2010-11-03T09:20:00Z,27.1690,-82.9260,22.37,1111122 
COMPS,ioos:station:USF.COMPS:C10:1,2010-11-03T09:40:00Z,27.1690,-82.9260,22.5,1111122 
COMPS,ioos:station:USF.COMPS:C10:1,2010-11-03T10:00:00Z,27.1690,-82.9260,22.5,1111122 
COMPS,ioos:station:USF.COMPS:C10:1,2010-11-03T10:20:00Z,27.1690,-82.9260,22.57,1111122 
COMPS,ioos:station:USF.COMPS:C10:1,2010-11-03T10:40:00Z,27.1690,-82.9260,22.6,1111122 
COMPS,ioos:station:USF.COMPS:C10:1,2010-11-03T11:00:00Z,27.1690,-82.9260,22.6,1111122 
COMPS,ioos:station:USF.COMPS:C10:1,2010-11-03T11:20:00Z,27.1690,-82.9260,22.75,1111122 
COMPS,ioos:station:USF.COMPS:C10:1,2010-11-03T11:40:00Z,27.1690,-82.9260,22.89,1111122 
COMPS,ioos:station:USF.COMPS:C10:1,2010-11-03T12:00:00Z,27.1690,-82.9260,22.9,1111122 
COMPS,ioos:station:USF.COMPS:C10:1,2010-11-03T12:20:00Z,27.1690,-82.9260,22.76,1111122 
COMPS,ioos:station:USF.COMPS:C10:1,2010-11-03T12:40:00Z,27.1690,-82.9260,22.87,1111122 
COMPS,ioos:station:USF.COMPS:C10:1,2010-11-03T13:00:00Z,27.1690,-82.9260,22.9,1111122 
COMPS,ioos:station:USF.COMPS:C10:1,2010-11-03T13:20:00Z,27.1690,-82.9260,22.92,1111122 
COMPS,ioos:station:USF.COMPS:C10:1,2010-11-03T13:40:00Z,27.1690,-82.9260,22.79,1111122 
COMPS,ioos:station:USF.COMPS:C10:1,2010-11-03T14:00:00Z,27.1690,-82.9260,22.8,1111122 
COMPS,ioos:station:USF.COMPS:C10:1,2010-11-03T14:20:00Z,27.1690,-82.9260,22.78,1111122 
COMPS,ioos:station:USF.COMPS:C10:1,2010-11-03T14:40:00Z,27.1690,-82.9260,22.97,1111122 
COMPS,ioos:station:USF.COMPS:C10:1,2010-11-03T15:00:00Z,27.1690,-82.9260,23.0,1111122 
COMPS,ioos:station:USF.COMPS:C10:1,2010-11-03T15:20:00Z,27.1690,-82.9260,23.17,1111122 
COMPS,ioos:station:USF.COMPS:C10:1,2010-11-03T15:40:00Z,27.1690,-82.9260,23.2,1111122 
COMPS,ioos:station:USF.COMPS:C10:1,2010-11-03T16:00:00Z,27.1690,-82.9260,23.2,1111122 
COMPS,ioos:station:USF.COMPS:C10:1,2010-11-03T16:20:00Z,27.1690,-82.9260,23.62,1111122 
COMPS,ioos:station:USF.COMPS:C10:1,2010-11-03T16:40:00Z,27.1690,-82.9260,23.83,1111122 
COMPS,ioos:station:USF.COMPS:C10:1,2010-11-03T17:00:00Z,27.1690,-82.9260,23.8,1111122 
COMPS,ioos:station:USF.COMPS:C10:1,2010-11-03T17:20:00Z,27.1690,-82.9260,24.18,1111122 
COMPS,ioos:station:USF.COMPS:C10:1,2010-11-03T17:40:00Z,27.1690,-82.9260,24.28,1111122 
COMPS,ioos:station:USF.COMPS:C10:1,2010-11-03T18:00:00Z,27.1690,-82.9260,24.3,1111122 
COMPS,ioos:station:USF.COMPS:C10:1,2010-11-03T18:20:00Z,27.1690,-82.9260,24.52,1111122 
COMPS,ioos:station:USF.COMPS:C10:1,2010-11-03T18:40:00Z,27.1690,-82.9260,24.53,1111122 
COMPS,ioos:station:USF.COMPS:C10:1,2010-11-03T19:00:00Z,27.1690,-82.9260,24.5,1111122 
COMPS,ioos:station:USF.COMPS:C10:1,2010-11-03T19:20:00Z,27.1690,-82.9260,24.76,1111122 
COMPS,ioos:station:USF.COMPS:C10:1,2010-11-03T19:40:00Z,27.1690,-82.9260,24.85,1111122 
COMPS,ioos:station:USF.COMPS:C10:1,2010-11-03T20:00:00Z,27.1690,-82.9260,24.9,1111122 
COMPS,ioos:station:USF.COMPS:C10:1,2010-11-03T20:20:00Z,27.1690,-82.9260,25.29,1111122 
COMPS,ioos:station:USF.COMPS:C10:1,2010-11-03T20:40:00Z,27.1690,-82.9260,25.2,1111122 
COMPS,ioos:station:USF.COMPS:C10:1,2010-11-03T21:00:00Z,27.1690,-82.9260,25.2,1111122 
COMPS,ioos:station:USF.COMPS:C10:1,2010-11-03T21:20:00Z,27.1690,-82.9260,25.07,1111122 
COMPS,ioos:station:USF.COMPS:C10:1,2010-11-03T21:40:00Z,27.1690,-82.9260,24.93,1111122 
COMPS,ioos:station:USF.COMPS:C10:1,2010-11-03T22:00:00Z,27.1690,-82.9260,24.9,1111122 
COMPS,ioos:station:USF.COMPS:C10:1,2010-11-03T22:20:00Z,27.1690,-82.9260,24.54,1111122 
COMPS,ioos:station:USF.COMPS:C10:1,2010-11-03T22:40:00Z,27.1690,-82.9260,24.47,1111122 
COMPS,ioos:station:USF.COMPS:C10:1,2010-11-03T23:00:00Z,27.1690,-82.9260,24.5,1111122 
COMPS,ioos:station:USF.COMPS:C10:1,2010-11-03T23:20:00Z,27.1690,-82.9260,24.4,1111122 
COMPS,ioos:station:USF.COMPS:C10:1,2010-11-03T23:40:00Z,27.1690,-82.9260,24.47,1111122 
COMPS,ioos:station:USF.COMPS:C10:1,2010-11-04T00:00:00Z,27.1690,-82.9260,24.5,1111122 
COMPS,ioos:station:USF.COMPS:C10:1,2010-11-04T00:20:00Z,27.1690,-82.9260,24.35,1111122 
COMPS,ioos:station:USF.COMPS:C10:1,2010-11-04T00:40:00Z,27.1690,-82.9260,24.35,1111122 
COMPS,ioos:station:USF.COMPS:C10:1,2010-11-04T01:00:00Z,27.1690,-82.9260,24.4,1111122 
COMPS,ioos:station:USF.COMPS:C10:1,2010-11-04T01:20:00Z,27.1690,-82.9260,24.36,1111122 
COMPS,ioos:station:USF.COMPS:C10:1,2010-11-04T01:40:00Z,27.1690,-82.9260,24.28,1111122 
COMPS,ioos:station:USF.COMPS:C10:1,2010-11-04T02:00:00Z,27.1690,-82.9260,24.3,1111122 
COMPS,ioos:station:USF.COMPS:C10:1,2010-11-04T02:20:00Z,27.1690,-82.9260,24.28,1111122 
COMPS,ioos:station:USF.COMPS:C10:1,2010-11-04T02:40:00Z,27.1690,-82.9260,23.98,1111122 
COMPS,ioos:station:USF.COMPS:C10:1,2010-11-04T03:00:00Z,27.1690,-82.9260,24.0,1111122 
COMPS,ioos:station:USF.COMPS:C10:1,2010-11-04T03:20:00Z,27.1690,-82.9260,23.22,1111122 
COMPS,ioos:station:USF.COMPS:C10:1,2010-11-04T03:40:00Z,27.1690,-82.9260,22.52,1111122 
COMPS,ioos:station:USF.COMPS:C10:1,2010-11-04T04:00:00Z,27.1690,-82.9260,22.5,1111122 
COMPS,ioos:station:USF.COMPS:C10:1,2010-11-04T04:20:00Z,27.1690,-82.9260,22.75,1111122 
COMPS,ioos:station:USF.COMPS:C10:1,2010-11-04T04:40:00Z,27.1690,-82.9260,23.34,1111122 
COMPS,ioos:station:USF.COMPS:C10:1,2010-11-04T05:00:00Z,27.1690,-82.9260,23.3,1111122 
COMPS,ioos:station:USF.COMPS:C10:1,2010-11-04T05:20:00Z,27.1690,-82.9260,23.17,1111122 
COMPS,ioos:station:USF.COMPS:C10:1,2010-11-04T05:40:00Z,27.1690,-82.9260,22.97,1111122 
COMPS,ioos:station:USF.COMPS:C10:1,2010-11-04T06:00:00Z,27.1690,-82.9260,23.0,1111122 
COMPS,ioos:station:USF.COMPS:C10:1,2010-11-04T06:20:00Z,27.1690,-82.9260,22.87,1111122 
COMPS,ioos:station:USF.COMPS:C10:1,2010-11-04T06:40:00Z,27.1690,-82.9260,22.75,1111122 
COMPS,ioos:station:USF.COMPS:C10:1,2010-11-04T07:00:00Z,27.1690,-82.9260,22.8,1111122 
COMPS,ioos:station:USF.COMPS:C10:1,2010-11-04T07:20:00Z,27.1690,-82.9260,22.91,1111122 
COMPS,ioos:station:USF.COMPS:C10:1,2010-11-04T07:40:00Z,27.1690,-82.9260,21.53,1111122 
COMPS,ioos:station:USF.COMPS:C10:1,2010-11-04T08:00:00Z,27.1690,-82.9260,21.5,1111122 
COMPS,ioos:station:USF.COMPS:C10:1,2010-11-04T08:20:00Z,27.1690,-82.9260,21.67,1111122 
COMPS,ioos:station:USF.COMPS:C10:1,2010-11-04T08:40:00Z,27.1690,-82.9260,21.63,1111122 
COMPS,ioos:station:USF.COMPS:C10:1,2010-11-04T09:00:00Z,27.1690,-82.9260,21.6,1111122 
COMPS,ioos:station:USF.COMPS:C10:1,2010-11-04T09:20:00Z,27.1690,-82.9260,21.99,1111122 
COMPS,ioos:station:USF.COMPS:C10:1,2010-11-04T09:40:00Z,27.1690,-82.9260,22.24,1111122 
COMPS,ioos:station:USF.COMPS:C10:1,2010-11-04T10:00:00Z,27.1690,-82.9260,22.2,1111122 
COMPS,ioos:station:USF.COMPS:C10:1,2010-11-04T10:20:00Z,27.1690,-82.9260,22.72,1111122 
COMPS,ioos:station:USF.COMPS:C10:1,2010-11-04T10:40:00Z,27.1690,-82.9260,22.96,1111122 
COMPS,ioos:station:USF.COMPS:C10:1,2010-11-04T11:00:00Z,27.1690,-82.9260,23.0,1111122 
COMPS,ioos:station:USF.COMPS:C10:1,2010-11-04T11:20:00Z,27.1690,-82.9260,22.75,1111122 
COMPS,ioos:station:USF.COMPS:C10:1,2010-11-04T11:40:00Z,27.1690,-82.9260,22.55,1111122 
COMPS,ioos:station:USF.COMPS:C10:1,2010-11-04T12:00:00Z,27.1690,-82.9260,22.6,1111122 
COMPS,ioos:station:USF.COMPS:C10:1,2010-11-04T12:20:00Z,27.1690,-82.9260,22.59,1111122 
COMPS,ioos:station:USF.COMPS:C10:1,2010-11-04T12:40:00Z,27.1690,-82.9260,22.68,1111122 
COMPS,ioos:station:USF.COMPS:C10:1,2010-11-04T13:00:00Z,27.1690,-82.9260,22.7,1111122 
COMPS,ioos:station:USF.COMPS:C10:1,2010-11-04T13:20:00Z,27.1690,-82.9260,23.06,1111122 
COMPS,ioos:station:USF.COMPS:C10:1,2010-11-04T13:40:00Z,27.1690,-82.9260,23.13,1111122 
COMPS,ioos:station:USF.COMPS:C10:1,2010-11-04T14:00:00Z,27.1690,-82.9260,23.1,1111122 
COMPS,ioos:station:USF.COMPS:C10:1,2010-11-04T14:20:00Z,27.1690,-82.9260,23.39,1111122 
COMPS,ioos:station:USF.COMPS:C10:1,2010-11-04T14:40:00Z,27.1690,-82.9260,23.23,1111122 
COMPS,ioos:station:USF.COMPS:C10:1,2010-11-04T15:00:00Z,27.1690,-82.9260,23.2,1111122 
COMPS,ioos:station:USF.COMPS:C10:1,2010-11-04T15:20:00Z,27.1690,-82.9260,20.42,1111122 
COMPS,ioos:station:USF.COMPS:C10:1,2010-11-04T15:40:00Z,27.1690,-82.9260,20.85,1111122 
COMPS,ioos:station:USF.COMPS:C10:1,2010-11-04T16:00:00Z,27.1690,-82.9260,20.9,1111122 
COMPS,ioos:station:USF.COMPS:C10:1,2010-11-04T16:20:00Z,27.1690,-82.9260,22.01,1111122 
COMPS,ioos:station:USF.COMPS:C10:1,2010-11-04T16:40:00Z,27.1690,-82.9260,20.56,1111122 
COMPS,ioos:station:USF.COMPS:C10:1,2010-11-04T17:00:00Z,27.1690,-82.9260,20.6,1111122 
COMPS,ioos:station:USF.COMPS:C10:1,2010-11-04T17:20:00Z,27.1690,-82.9260,22.05,1111122 
COMPS,ioos:station:USF.COMPS:C10:1,2010-11-04T17:40:00Z,27.1690,-82.9260,23.05,1111122 
COMPS,ioos:station:USF.COMPS:C10:1,2010-11-04T18:00:00Z,27.1690,-82.9260,23.1,1111122 
COMPS,ioos:station:USF.COMPS:C10:1,2010-11-04T18:20:00Z,27.1690,-82.9260,23.14,1111122 
COMPS,ioos:station:USF.COMPS:C10:1,2010-11-04T18:40:00Z,27.1690,-82.9260,23.42,1111122 